Zurück zum Katalog

FENGYUN 1C DEB

AktivPO
NORAD 30322·DEBRIS·🇨🇳 China

Gestartet May 10, 1999 von Taiyuan Satellite Launch Center

Loading…

Nächste Überflüge (nächste 24 Stunden)

TLE

AktuellSource: Space-Track

Epoche: Sep 13, 2026, 23:38 UTC

1 30322U 99025AAK 26256.98495389  .00001325  00000-0  76186-3 0  9993
2 30322  98.3762  99.8281 0124404 189.3380 170.5477 14.07002027   667

Verfolge FENGYUN 1C DEB in Echtzeit mit AllMySat

Download on the App Store